Regional Weather Roundup
Issued by NWS

Home | Current Version | Previous Version | Graphics & Text | Print | Product List | Glossary On
Versions: 1 2 3 4 5 6 7 8 9 10 11 12 13 14 15 16 17 18 19 20 21 22 23 24 25 26 27 28 29 30 31 32 33 34 35 36 37 38 39 40 41 42 43 44 45 46 47 48 49 50
000
ASUS45 KBOU 040907
RWRCO

WEATHER ROUNDUP FOR COLORADO
NATIONAL WEATHER SERVICE DENVER/BOULDER CO
200 AM MST WED MAR 04 2015

NOTE: "FAIR" INDICATES FEW OR NO CLOUDS BELOW 12000 FEET WITH NO
SIGNIFICANT WEATHER AND/OR OBSTRUCTIONS TO VISIBILITY.

COZ001>005-013-030-031-041000-
...NORTHWEST COLORADO...

CITY           SKY/WX    TMP DP  RH WIND       PRES   REMARKS
CRAIG          CLOUDY    17   8  67 W7        29.97R WCI   8
HAYDEN         CLOUDY    16   7  67 W10       29.92R WCI   3
MEEKER         CLOUDY    16   9  74 NE5       29.95R WCI   9
MOUNT WERNER   NOT AVBL
STEAMBOAT SPGS CLOUDY    15  10  80 W10       29.90R WCI   2
WALDEN         MOCLDY    10   5  79 N10       29.81S WCI  -3
$$

COZ006>008-011-041000-
...WEST CENTRAL VALLEYS...

CITY           SKY/WX    TMP DP  RH WIND       PRES   REMARKS
GRAND JUNCTION LGT SNOW  28  27  96 NE5       29.94R FOG     WCI  23
MONTROSE       LGT SNOW  28  25  88 NW7       29.92R FOG     WCI  21
EAGLE          MOCLDY    21  19  93 SE9       29.91R WCI  11
RIFLE          CLOUDY    27  10  49 N8G18     29.94R WCI  19
DELTA          CLOUDY    32  30  92 SW5       29.90S WCI  28
NUCLA          FLURRIES  30  28  93 CALM      29.94S
$$

COZ017>023-064>068-041000-
...SOUTHWEST COLORADO...

CITY           SKY/WX    TMP DP  RH WIND       PRES   REMARKS
DURANGO        CLEAR     17  14  88 N3        29.86S
CORTEZ         CLOUDY    28  26  92 SE7       29.89R WCI  21
PAGOSA SPRINGS CLOUDY    24  24  99 CALM      29.86S FOG
TELLURIDE      LGT SNOW  19  18  96 SW5       29.84S WCI  12
WOLF CREEK PAS CLOUDY     9   7  92 MISG      29.80S
$$

COZ009-010-012-014-032>034-037-058>063-041000-
...CENTRAL COLORADO...

CITY           SKY/WX    TMP DP  RH WIND       PRES   REMARKS
ASPEN          LGT SNOW  20  17  88 N8G17     29.82R FOG     WCI  10
BUENA VISTA    CLOUDY    22  19  85 NW9       29.77R WCI  12
COPPER MTN     NOT AVBL
BERTHOUD PASS  CLOUDY    -4  -9  77 NW24G31   29.66S WCI -29
COTTONWOOD PAS CLOUDY    19  16  86 CALM      29.74R FOG
GUNNISON       MOCLDY    23  16  74 SW8       29.84R WCI  14
KREMMLING      CLOUDY    19   9  63 CALM      29.87R
LEADVILLE      LGT SNOW  11   7  84 N6        29.74S FOG     WCI   1
SALIDA         MOCLDY    27  15  61 S8        29.85S WCI  18
SUNLIGHT       CLOUDY   N/A N/A N/A NW5         N/A
WILKERSON PASS LGT SNOW  10   7  85 SW7       29.73R WCI   0
$$

COZ069>075-041000-
...SAN LUIS VALLEY/SANGRE DE CRISTO MOUNTAINS...

CITY           SKY/WX    TMP DP  RH WIND       PRES   REMARKS
ALAMOSA        CLEAR     22  18  85 S8        29.81R WCI  12
LA VETA PASS   CLOUDY    19  14  79 MISG      29.78R
SAGUACHE       PTCLDY    19  14  79 NW10      29.81R WCI   8
$$

COZ035-036-038>040-041000-
...NORTHERN COLORADO FRONT RANGE...

CITY           SKY/WX    TMP DP  RH WIND       PRES   REMARKS
DENVER INTL AP LGT SNOW  12  10  92 NE16      29.98R FOG     WCI  -5
DMNS CITY PARK   N/A     13  10  90 N7G13     29.99R WCI   2
AURORA         LGT SNOW  12  10  92 N12       29.97R FOG     WCI  -2
FRONT RANGE AP FLURRIES  14  12  92 NE12      29.98R WCI   0
ERIE MUNI ARPT LGT SNOW  13  10  87 NE8       30.02R WCI   2
BOULDER MUN AP LGT SNOW  14  12  92 NE6       30.00R WCI   5
CENTENNIAL     LGT SNOW  13  10  88 N12       29.94R VSB 3/4 WCI  -1
BROOMFIELD     LGT SNOW  14  12  92 N10       29.98R WCI   1
FORT COLLINS   CLOUDY    12   9  85 NE6       30.03R WCI   3
LONGMONT       LGT SNOW  15  11  83 NE6       30.05R WCI   6
$$

COZ041-046-047-076>085-087-088-041000-
...PIKES PEAK/PALMER DIVIDE AND SOUTHERN FOOTHILLS...

CITY           SKY/WX    TMP DP  RH WIND       PRES   REMARKS
COLO. SPRINGS  LGT SNOW  21  19  92 SE5       29.89R FOG     WCI  15
A. F. ACADEMY  FLURRIES  17  13  82 N8        29.87R WCI   7
ELLICOTT       NOT AVBL
FALCON         LGT SNOW  17  15  93 N3        29.87R
FORT CARSON    LGT SNOW  21  20  96 SE5       29.88R VSB 3/4 WCI  15
LIMON          LGT SNOW  15  12  88 NE12      29.94R FOG     WCI   2
MONUMENT HILL  LGT SNOW  12  10  92 N8        29.85R WCI   1
TRINIDAD       CLOUDY    29  26  89 NE9       29.85R FOG     WCI  20
$$

COZ042>045-048>051-090-091-041000-
...NORTHEAST COLORADO...

CITY           SKY/WX    TMP DP  RH WIND       PRES   REMARKS
GREELEY ARPT   CLOUDY    14   7  73 NE7       30.03R WCI   4
AKRON          LGT SNOW  13  10  88 NE13      30.02R FOG     WCI  -2
BURLINGTON     LGT SNOW  16  12  84 E12       30.03R FOG     WCI   3
WRAY           LGT SNOW  17  15  90 N5        30.08R WCI  10
STERLING       LGT SNOW  16  14  93 N8        30.07R WCI   5
HOLYOKE        NOT AVBL
FORT MORGAN    LGT SNOW  14  11  86 NE12      30.04R WCI   1
$$

COZ086-089-092>099-041000-
...SOUTHEAST COLORADO...

CITY           SKY/WX    TMP DP  RH WIND       PRES   REMARKS
PUEBLO         CLOUDY    24  23  96 E14       29.93R FOG     WCI  12
LA JUNTA       CLOUDY    25  22  88 E14       29.97R FOG     WCI  13
LAMAR          CLOUDY    25  21  85 NE14      29.99R WCI  13
SPRINGFIELD      N/A     22  20  92 E13       29.96R WCI  10
$$


USA.gov is the U.S. government's official web portal to all federal, state and local government web resources and services.